Location: Finnegan
(51.1333°N, 112.0833°W)
Time: 14:25:36
(UTC+00:00)

Envisat - Pass Details

Date: 03 December 2021
Orbit: 764 x 766 km, 98.2° (Epoch: 28 January)

Event Time Altitude Azimuth Distance (km) Brightness Sun altitude
Rises 00:45:37 0° 206° (SSW) 3,222 7.0 -12.2°
Reaches altitude 10° 00:48:29 10° 223° (SW) 2,302 6.5 -12.6°
Maximum altitude 00:52:12 20° 270° (W) 1,705 5.8 -13.2°
Drops below altitude 10° 00:55:58 10° 318° (NW) 2,315 5.8 -13.7°
Sets 00:58:53 0° 335° (NNW) 3,247 6.3 -14.1°
